Regional Weather Roundup
Issued by NWS

Home | Current Version | Previous Version | Graphics & Text | Print | Product List | Glossary On
Versions: 1 2 3 4 5 6 7 8 9 10 11 12 13 14 15 16 17 18 19 20 21 22 23 24 25 26 27 28 29 30 31 32 33 34 35 36 37 38 39 40 41 42 43 44 45 46 47 48 49 50
982
ASUS44 KMEG 052010
RWRTN
TENNESSEE HOURLY STATE WEATHER ROUNDUP
NATIONAL WEATHER SERVICE MEMPHIS TN
200 PM CST MON DEC 05 2016

TNZ002-004-019-021-049-052-054-088>092-052100-
WEST TENNESSEE

CITY           SKY/WX    TMP DP  RH WIND       PRES   REMARKS
MEMPHIS INTL   CLOUDY    46  43  89 E9        29.87F
NWS MEMPHIS      N/A     45 N/A N/A MISG        N/A
JACKSON        CLOUDY    46  42  86 E9        29.91F
DYERSBURG      CLOUDY   N/A N/A N/A E9        29.90F
UNION CITY     CLOUDY    41  37  87 E7        29.92F
PARIS          CLOUDY    39  36  87 E9        29.93F WCI  33
HUNTINGDON     CLOUDY    45  39  81 E9        29.92F
LEXINGTON      CLOUDY    45  43  93 E7        29.91F
$$

TNZ008-025-027-028-033-062-065-066-052100-
NORTH MIDDLE TENNESSEE

CITY           SKY/WX    TMP DP  RH WIND       PRES   REMARKS
NASHVILLE      CLOUDY    47  42  83 NE7       29.96F
PORTLAND       CLOUDY    43  41  93 NE9       29.96F
CLARKSVILLE    CLOUDY    43  38  82 E10       29.95F
SMYRNA         CLOUDY    47  44  90 N5        29.97F
CROSSVILLE     CLOUDY    46  44  93 E6        29.95F
$$

TNZ061-075-076-078-094-096-097-052100-
SOUTH MIDDLE TENNESSEE

CITY           SKY/WX    TMP DP  RH WIND       PRES   REMARKS
FAYETTEVILLE   CLOUDY    48  48 100 NE6       29.93F FOG
TULLAHOMA      CLOUDY    46  46 100 N3        29.94F
WINCHESTER     CLOUDY    48  48 100 CALM      29.93F
MCMINNVILLE    PTSUNNY   48  48 100 NE5       29.94F
COLUMBIA       CLOUDY   N/A N/A N/A NE5       29.91F
SHELBYVILLE    CLOUDY    48  48 100 NE3       29.95F
$$

TNZ017-018-042-046-047-052100-
NORTHEAST TENNESSEE

CITY           SKY/WX    TMP DP  RH WIND       PRES   REMARKS
TRI CITIES     PTSUNNY   52  40  63 E5        29.99S
ELIZABETHTON   MOSUNNY   52  43  71 CALM      29.97F
$$

TNZ012-013-036-069-073-074-052100-
CENTRAL EAST TENNESSEE

CITY           SKY/WX    TMP DP  RH WIND       PRES   REMARKS
KNOXVILLE      CLOUDY    52  46  80 NE7       29.96F
OAK RIDGE      CLOUDY    52  45  77 NE5       29.98F
DOWNTOWN KNOXV PTSUNNY   54  48  82 VRB5      29.97F
GATLINBURG     CLOUDY    50  46  87 NE6       29.97F
MORRISTOWN     SUNNY     52  46  82 E3        29.97F
JACKSBORO      CLOUDY    52  43  71 E5        29.99F
$$

TNZ083-085-099-052100-
SOUTHEAST TENNESSEE

CITY           SKY/WX    TMP DP  RH WIND       PRES   REMARKS
CHATTANOOGA    RAIN      51  48  89 N6        29.96F FOG
$$

SKY/WX REPORTED AS FAIR MEANS FEW OR NO CLOUDS BELOW
12 THOUSAND FEET.





USA.gov is the U.S. government's official web portal to all federal, state and local government web resources and services.